Regional Weather Roundup
Issued by NWS Sterling, VA

Home | Current Version | Previous Version | Text Only | Print | Product List | Glossary On
Versions: 1 2 3 4 5 6 7 8 9 10 11 12 13 14 15 16 17 18 19 20 21 22 23 24 25 26 27 28 29 30 31 32 33 34 35 36 37 38 39 40 41 42 43 44 45 46 47 48 49 50
000
ASUS41 KLWX 281011
RWRLWX

REGIONAL WEATHER ROUNDUP
NATIONAL WEATHER SERVICE BALTIMORE MD/WASHINGTON DC
600 AM EDT WED SEP 28 2016

Note: "FAIR" indicates few or no clouds below 12,000 feet
with no significant weather and/or obstructions to visibility.
 TC=TEMPERATURE CELSIUS

 * =Non NWS site. Station does not report precipitation (e.g. rain,
    snow, etc.), thunder, or fog.

DCZ001-MDZ009-015-VAZ040>042-051-053>054-281100-
WASHINGTON METRO

CITY           SKY/WX    TMP DP  RH WIND       PRES   REMARKS
WASHINGTON NAT CLOUDY    66  65  96 NE9       29.96S
DULLES         CLOUDY    63  62  97 E10       29.96R FOG
ANDREWS AFB    CLOUDY    64  63  94 NE8       29.95R
FT BELVOIR     LGT RAIN  64  63  94 VRB1      29.94S
QUANTICO       CLOUDY    68  65  90 NE13      29.94S THUNDER
COLLEGE PARK*  CLOUDY    61  59  94 CALM      29.96S
LEESBURG*      CLOUDY    63  63 100 NE3       29.98R
MANASSAS*      CLOUDY    66  64  94 NE5       29.95R
GAITHERSBURG*  CLOUDY    61  57  88 E5        30.01S

$$

MDZ006>007-011-014-281100-
BALTIMORE METRO

CITY           SKY/WX    TMP DP  RH WIND       PRES   REMARKS
BWI AIRPORT    CLOUDY    63  62  97 NE7       29.97R FOG
MD SCIENCE CTR   N/A     63  60  90 MISG      29.99R
MARTIN STATE   FOG       63  63 100 CALM      29.99  VSB 3/4
ANNAPOLIS      CLOUDY    67  65  93 NE7       29.97R
FORT MEADE*    CLOUDY    59  59 100 NE3       30.00R

$$

MDZ012-015-019>023-281100-
MARYLAND EASTERN SHORE

CITY           SKY/WX    TMP DP  RH WIND       PRES   REMARKS
OCEAN CITY     CLOUDY    71  66  84 NE7       29.96R
SALISBURY      CLOUDY    66  66 100 NE9       29.96R
BAY BRIDGE AP* CLOUDY    63  63 100 MISG      29.97R FOG
CAMBRIDGE*     MOCLDY    63  63 100 CALM      29.95R
EASTON*        CLEAR     63  61  94 E5        30.00  FOG

$$

MDZ017>025-281100-
SOUTHERN MARYLAND

CITY           SKY/WX    TMP DP  RH WIND       PRES   REMARKS
PATUXENT RIVER CLOUDY    68  65  90 E9        29.94R
ST INIGOES     NOT AVBL
LEONARDTOWN*   CLOUDY    66  64  94 E5        29.96R

$$

MDZ003>005-281100-
NORTH CENTRAL MARYLAND

CITY           SKY/WX    TMP DP  RH WIND       PRES   REMARKS
FREDERICK*     NOT AVBL
HAGERSTOWN APT MOCLDY    58  52  80 NW5       29.97S

$$

MDZ501>502-281100-
WESTERN MARYLAND

CITY           SKY/WX    TMP DP  RH WIND       PRES   REMARKS
OAKLAND*       CLEAR     50  37  62 SE5       29.99S
CUMBERLAND*    CLOUDY    46  46 100 CALM      30.04R

$$

VAZ025>031-281100-
SHENANDOAH VALLEY

CITY           SKY/WX    TMP DP  RH WIND       PRES   REMARKS
WINCHESTER*    RAIN      61  57  88 N5        29.96S
FRONT ROYAL*   CLOUDY    59  57  94 CALM      29.95R
LURAY*         CLOUDY   N/A N/A N/A NE5       29.96R HAZE
NEW MARKET*    PTSUNNY  N/A N/A N/A CALM      29.95S
STAUNTON*      CLOUDY    59  55  86 CALM      29.97S
WAYNESBORO*    CLOUDY    60  55  83 NW3       29.96R

$$

WVZ021-048>050-054>055-281100-
EASTERN WEST VIRGINIA PANHANDLE

CITY           SKY/WX    TMP DP  RH WIND       PRES   REMARKS
MARTINSBURG    CLOUDY    59  56  89 N5        29.96S
PETERSBURG*    MOCLDY    43  41  93 CALM      29.99S

$$

VAZ036>039-050-281100-
CENTRAL FOOTHILLS

CITY           SKY/WX    TMP DP  RH WIND       PRES   REMARKS
CHARLOTTESVILL CLOUDY    67  64  90 NE7       29.93S FOG
CULPEPER*      CLOUDY    65  65 100 N3        29.95S FOG
ORANGE*        LGT RAIN  64  64 100 CALM      29.95S
GORDONSVILLE*  CLOUDY    64  64 100 NE3       29.92S
WARRENTON*     LGT RAIN  65  61  87 NE3       29.94R

$$

VAZ055>057-281100-
NORTH AND CENTRAL PIEDMONT

CITY           SKY/WX    TMP DP  RH WIND       PRES   REMARKS
FREDERICKSBRG* LGT RAIN  67  67 100 N3        29.91S
STAFFORD*      CLOUDY    65  64  97 W12       29.98R THUNDER

$$

NCZ024-NYZ072-PAZ021-071-VAZ022-071-281100-
OTHER REGIONAL OBSERVATIONS

CITY           SKY/WX    TMP DP  RH WIND       PRES   REMARKS
NEW YORK CITY  PTCLDY    61  57  87 NE3       30.05S
PHILADELPHIA   MOCLDY    59  56  89 N3        30.01S
PITTSBURGH     CLEAR     50  45  83 E5        29.93S
ROANOKE        CLOUDY    62  59  90 CALM      29.96R
RICHMOND       RAIN      68  67  96 SE8       29.91S FOG
RALEIGH        CLOUDY    70  69  97 VRB3      29.92S

$$

ANZ530>537-281100-
MARINE OBSERVATIONS

STATION/POSITION TIME  TEMP    WIND        PRES
                       AIR SEA DIR/SP/G
                 (UTC) (F)     (DEG/KT/KT) (MB)
THOMAS PT LIGHT  1000   65 74   60/ 11/ 12 1016.2R
BALT KEY BRIDGE  0948   64      40/  4/  6 1014.9R
COVE POINT       0942   67     100/ 11/ 14 1014.4S
LEWISETTA        0942   72 74  100/ 12/ 14 1013.0R
SOLOMONS ISLAND  0942   69 75   70/ 10/ 12   N/A
PINEY POINT      0948           90/ 10/ 11   N/A

$$




USA.gov is the U.S. government's official web portal to all federal, state and local government web resources and services.